MOLNIYA 2-17 (9829 NORAD) Tracking and Keplerian Element Data

This shows tracking and keplerian element data for the satellite.

Feedback or suggestion? Click here.




ElementValue
Catalog9829
NameMOLNIYA 2-17
Epoch Orbit31282
Epoch Day6.47411878
Epoch Year2020
RAAN56.3577
Inclination61.4273
Eccentricity0.0346833
Argument of Perigee286.181
Mean Anonmoly173.9476
Mean Motion15.9016114
Decay Rate0.99999999
L11 09829U 77010A 20006.47411878 .99999999 10088-4 95425-3 0 9992
L22 09829 61.4273 56.3577 0346833 286.1810 173.9476 15.90161140312820



Live tracking and technical data element details for MOLNIYA 2-17 (NORAD 9829). MOLNIYA 2-17 can be tracked NOW for your location showing map with azimuth and elevation plus other details from your city location.







IsCatalogInMostPopularTable: catalog: 9829, numindb: 335
Update: records affected: 1



GetName: 9829 MOLNIYA 2-17

Hit Count: updated at: Thu, 22 May 2025 04:27:03 GMT